Wind_Speed
17 17 18 15 15 13 13 14 15 13 8 7 6 4 4 2 1 1 2 3 2 1 2 3 2 3 2 1 2 2 4 6 5 4 4 5 6 7 7 8 3 1 1 8 6 4 4 7 10
19 18 18 17 16 15 15 13 10 10 8 7 7 4 2 1 1 2 3 4 3 2 1 1 1 1 1 1 0 1 2 2 3 4 3 3 4 5 6 6 6 3 5 6 6 5 5 3 4
18 18 18 18 16 14 14 14 12 10 10 9 7 6 6 4 4 4 4 5 5 5 4 3 2 2 2 2 1 1 0 1 0 1 3 2 3 2 2 2 3 6 5 4 4 5 4 7 7
18 18 17 17 17 18 18 16 14 13 11 10 9 7 7 6 5 5 5 5 7 7 5 5 4 3 3 3 2 1 2 1 1 0 0 1 2 3 5 3 2 2 5 4 6 7 8 9 5
19 19 18 17 16 17 17 16 15 13 11 10 8 7 6 6 5 4 4 4 5 6 7 5 4 3 2 2 1 2 1 0 1 2 2 1 2 2 4 5 6 5 5 5 6 8 10 11 12
18 17 17 16 17 18 17 17 15 13 11 9 7 5 4 4 4 4 4 5 6 6 6 7 6 5 5 4 3 3 3 3 2 2 3 2 2 3 4 4 6 7 8 9 7 9 10 13 13
16 16 17 15 16 17 18 18 15 13 11 9 6 5 4 3 3 3 3 3 2 3 4 4 4 3 3 3 4 4 3 3 3 3 4 4 3 3 4 5 5 7 7 8 10 10 11 13 14
17 17 16 15 15 15 17 17 15 14 12 9 7 5 4 3 2 4 4 2 2 0 2 2 3 4 4 5 6 6 6 6 6 6 5 6 6 5 4 5 7 8 8 8 7 8 12 15 15
18 16 16 16 14 15 17 17 16 13 11 8 6 5 4 3 3 3 5 5 4 4 4 5 4 4 5 7 8 8 8 7 7 8 8 8 8 9 8 6 7 8 9 10 9 10 11 13 15
17 16 14 16 17 19 18 18 16 14 11 7 5 4 3 3 3 4 5 6 6 5 6 6 6 7 9 9 9 10 10 9 9 8 8 9 9 10 10 11 11 11 10 9 10 12 13 14 14
19 17 18 18 18 18 19 19 17 15 12 9 9 7 6 5 5 5 5 5 6 7 6 6 7 8 10 11 11 10 11 11 10 10 9 9 9 9 10 11 12 12 13 12 12 11 11 14 15
20 19 19 19 18 18 19 20 19 17 15 13 10 10 9 8 7 7 7 7 7 7 8 8 8 9 10 10 10 10 10 10 10 11 11 12 11 11 11 12 12 13 13 14 14 13 13 13 13
24 23 22 20 19 19 20 21 20 20 17 16 13 12 11 10 10 9 9 9 9 9 10 11 11 11 11 11 11 11 11 10 10 11 12 13 14 14 14 14 15 16 17 17 17 17 17 17 17
28 27 25 23 22 21 21 21 20 19 19 17 16 14 12 11 10 11 12 12 11 11 12 12 13 13 13 13 13 12 12 13 13 14 14 15 16 16 17 18 18 19 18 18 19 20 21 21 21
31 30 27 26 24 23 24 23 22 22 20 18 17 15 14 13 13 13 14 13 13 13 13 12 13 13 14 15 15 15 16 16 17 16 17 17 17 18 18 19 20 20 21 21 21 20 20 20 20
33 32 30 27 27 26 25 23 23 22 22 20 19 18 17 16 15 15 14 15 16 15 15 16 16 16 16 16 16 17 18 18 18 18 19 19 19 20 21 22 22 22 22 22 23 23 22 21 21
36 33 31 30 30 29 27 25 24 24 23 23 21 20 18 18 18 18 16 17 19 18 18 19 19 19 19 19 19 19 19 19 20 20 21 22 23 23 24 25 25 26 25 24 24 24 24 25 24
37 35 34 33 32 31 29 27 28 27 27 26 23 22 21 21 21 19 20 20 21 21 21 21 21 22 23 22 22 22 21 22 22 23 25 26 27 27 28 29 29 29 29 28 27 27 26 25 26
42 41 39 38 37 36 34 35 32 32 29 26 27 26 25 24 22 22 23 22 22 23 23 23 23 23 23 24 24 24 24 25 26 27 28 28 30 31 33 34 34 34 33 32 31 30 29 27 26
47 46 45 42 41 40 39 36 37 35 30 31 31 28 28 27 25 25 26 26 25 25 25 26 26 26 26 27 27 27 28 29 30 31 32 33 34 34 34 34 34 34 35 34 34 33 32 31 29
49 49 48 45 43 44 44 42 41 38 36 35 33 31 30 30 30 29 28 29 28 28 28 29 29 29 30 30 30 31 32 33 34 35 36 36 37 36 35 34 34 34 34 35 35 34 33 32 32
51 51 51 49 47 49 48 49 44 43 40 38 35 32 32 34 34 33 32 31 32 32 31 32 33 33 34 34 34 34 36 36 36 37 37 37 38 38 37 36 35 34 35 35 34 33 32 32 31
49 51 52 52 52 53 53 55 48 47 45 40 35 36 37 37 37 35 34 35 35 35 34 34 35 37 38 37 37 38 39 38 39 39 39 38 38 38 38 36 35 33 32 33 33 32 31 30 30
49 50 52 53 54 58 56 56 57 49 44 42 39 39 39 39 39 38 37 36 37 38 37 37 38 39 40 40 40 40 41 40 40 40 40 39 39 38 37 35 33 32 33 33 31 31 30 30 29
50 50 51 54 57 61 58 57 59 51 48 44 41 41 40 40 42 41 40 39 40 40 40 41 41 41 42 43 43 42 42 41 41 40 39 38 38 37 36 35 34 31 31 31 31 31 30 31 31
49 50 51 54 57 57 58 60 58 56 50 48 45 41 40 41 42 44 43 42 42 43 43 42 43 44 45 45 44 42 42 41 41 40 39 38 37 36 34 34 33 33 32 32 32 33 33 33 33
50 52 51 53 55 57 59 60 58 57 53 48 47 46 43 43 45 45 44 44 43 44 44 45 46 46 46 46 43 41 40 41 40 39 40 37 35 35 35 36 35 33 33 33 34 35 36 36 36
53 52 52 54 57 60 60 58 58 56 53 50 48 46 45 44 44 44 44 43 43 44 45 47 47 47 47 45 42 41 41 42 40 39 38 37 37 37 37 37 37 36 36 36 37 37 38 38 38
54 54 55 55 57 58 59 58 57 56 54 50 48 45 43 41 40 42 42 42 42 44 45 46 47 48 47 45 43 42 41 41 40 39 39 40 39 39 39 40 39 39 39 40 40 40 41 41 41
54 56 57 57 57 56 56 56 56 55 53 51 49 46 43 39 37 37 38 39 41 42 44 48 49 48 47 46 45 44 43 42 41 41 42 42 41 41 42 43 42 42 43 43 44 44 44 44 44
Wind_Direction
166 165 163 167 164 158 163 163 174 179 174 185 195 201 193 215 307 58 61 66 118 162 304 341 26 38 18 288 312 343 348 358 360 18 40 40 47 68 126 132 126 90 315 354 350 16 61 112 133
178 175 173 176 173 171 166 158 159 171 168 167 179 176 178 182 87 76 67 76 102 123 153 299 326 112 95 23 0 293 310 329 338 339 345 9 20 38 65 154 163 236 287 341 3 4 32 63 123
171 169 170 176 174 162 149 160 156 152 151 147 141 129 120 112 98 73 66 74 89 99 101 111 122 113 132 152 157 133 169 279 231 318 330 327 310 322 21 59 207 220 248 308 306 322 333 23 349
170 169 169 157 150 150 151 142 144 142 137 132 128 115 106 99 94 88 81 80 95 107 105 108 112 115 112 118 114 119 137 181 174 131 164 317 295 287 285 283 291 255 232 246 265 280 281 302 360
161 158 154 154 147 153 146 143 139 139 135 128 125 118 112 109 98 87 90 96 93 97 110 118 100 95 79 76 71 32 14 36 302 311 287 254 257 283 276 281 277 270 274 237 246 265 271 281 270
165 163 162 160 152 158 148 147 147 146 141 140 138 132 129 124 121 102 97 105 105 102 94 92 93 82 80 68 62 45 32 27 354 342 347 333 294 282 281 281 286 285 269 274 261 247 258 261 266
173 173 173 163 161 159 157 155 155 148 154 151 149 149 148 158 161 152 144 124 96 88 88 75 74 65 35 29 12 2 347 348 1 7 7 4 350 321 293 291 281 272 276 268 266 272 272 261 251
182 181 176 178 173 171 165 162 162 165 157 163 164 163 167 171 175 202 207 196 212 291 353 354 350 344 344 342 338 332 325 320 319 317 319 323 322 325 321 297 280 281 276 264 263 261 266 269 269
190 189 183 185 179 188 178 176 173 173 167 173 172 195 190 202 208 207 216 224 242 270 301 316 326 332 332 331 326 321 317 316 316 309 301 294 296 299 299 300 294 280 276 276 268 259 258 259 263
193 195 190 197 190 199 190 188 188 183 186 184 190 233 225 232 238 235 219 221 238 257 286 298 315 318 322 319 316 316 313 308 306 304 302 299 298 300 300 296 293 288 282 281 272 262 264 265 262
199 203 200 201 197 206 200 199 196 198 200 205 209 226 235 242 243 241 239 238 244 250 256 262 283 300 308 308 308 310 313 314 310 309 308 305 303 298 303 306 300 291 287 285 280 280 277 270 269
207 210 211 207 203 208 203 206 206 208 213 227 224 230 233 236 240 238 237 240 247 260 267 269 275 289 301 306 307 307 308 313 314 315 316 315 314 310 304 302 300 300 294 293 288 285 286 289 286
214 216 216 214 210 210 208 211 210 215 218 234 232 235 236 236 237 240 241 244 252 261 269 272 276 284 294 297 300 302 304 306 309 318 319 319 319 321 322 317 313 305 296 292 287 283 285 292 295
220 220 219 218 215 214 213 216 215 220 222 228 238 237 239 242 243 245 248 254 258 261 264 269 277 284 289 290 291 292 298 303 306 309 311 313 312 312 311 310 310 308 309 305 296 287 286 290 291
223 225 223 221 220 219 219 219 218 221 225 228 231 236 242 247 252 256 257 259 261 265 269 272 275 280 283 284 285 287 292 297 302 304 305 306 308 308 308 307 306 307 304 301 300 300 296 292 290
225 227 226 225 225 224 225 223 226 226 229 229 232 237 243 249 253 256 261 265 266 267 271 274 275 275 276 278 281 283 286 289 292 295 298 301 303 304 306 306 305 304 304 302 297 294 295 294 293
228 228 228 229 230 231 229 228 231 232 236 236 237 241 246 249 252 257 260 263 266 270 273 275 277 280 282 282 282 282 282 283 284 287 289 293 296 297 298 299 300 300 300 298 299 296 292 288 289
233 232 231 232 233 236 235 231 235 238 238 242 245 247 249 250 251 254 258 260 266 270 273 276 278 280 281 281 282 282 282 282 283 285 287 291 294 295 297 298 298 297 296 295 296 295 293 291 289
233 233 231 231 232 235 234 233 236 241 244 247 248 249 252 254 252 252 256 259 263 266 268 271 274 277 279 279 279 279 279 279 280 283 285 287 289 292 295 297 298 297 296 294 293 292 292 290 289
233 234 233 232 235 238 238 237 242 244 246 248 249 251 252 255 254 254 257 261 262 266 268 267 269 271 273 274 275 276 276 277 278 280 282 285 289 292 295 296 296 294 292 293 293 294 295 294 291
237 237 238 238 238 240 242 239 242 247 244 249 250 251 255 257 255 257 258 261 263 264 265 268 271 271 271 272 273 274 275 276 278 281 285 288 292 296 297 297 297 295 292 290 290 291 293 293 291
238 240 240 241 241 242 244 245 242 246 249 249 252 254 255 257 257 257 260 263 265 264 265 266 268 270 271 271 273 275 276 278 281 284 286 289 291 293 294 294 294 293 290 288 289 290 289 288 288
241 241 242 243 243 244 244 249 241 244 248 252 255 254 254 255 258 260 262 264 265 267 266 266 267 269 271 272 272 273 275 278 280 282 285 287 288 289 290 289 288 287 288 287 286 286 288 287 286
242 242 243 244 246 246 245 248 249 246 250 250 252 256 258 258 259 260 261 263 265 266 267 267 267 269 271 272 272 273 274 277 279 281 283 285 285 286 286 286 285 286 287 285 284 284 284 284 283
242 241 243 245 246 250 250 250 257 252 251 253 253 254 256 259 261 261 262 264 264 267 268 268 270 270 270 270 271 273 275 277 278 280 281 281 282 283 284 283 284 284 281 280 279 278 278 279 280
245 245 247 249 251 253 255 252 253 258 255 256 256 254 255 258 259 260 261 263 265 267 268 269 269 270 270 272 272 272 273 275 276 278 279 280 282 282 282 284 283 281 280 279 279 278 278 278 276
244 245 246 247 251 254 254 255 255 256 258 257 257 258 258 258 258 260 262 263 264 265 267 268 269 270 270 270 271 272 273 273 275 277 279 280 281 281 281 279 277 277 277 277 276 276 277 278 278
243 243 244 244 247 250 254 256 258 258 261 261 259 259 260 260 259 258 259 260 261 263 264 266 266 267 269 270 271 272 273 273 275 276 277 277 276 277 276 275 275 276 276 276 275 275 276 275 275
243 245 245 246 246 250 254 256 258 260 261 262 261 261 260 259 258 258 259 260 261 262 263 265 266 266 267 270 271 272 272 274 276 276 276 275 275 274 273 273 274 275 276 276 276 275 274 274 274
244 243 243 242 245 249 253 254 259 261 263 264 262 262 263 261 260 257 256 257 259 259 260 261 262 264 266 268 270 271 273 274 275 276 275 274 273 271 271 272 273 275 276 276 275 274 274 274 273
Height
5852 5854 5856 5858 5863 5863 5864 5868 5868 5871 5873 5874 5877 5878 5880 5881 5882 5885 5884 5884 5885 5886 5886 5886 5887 5887 5888 5889 5890 5890 5891 5890 5891 5891 5891 5891 5891 5889 5888 5888 5888 5888 5889 5889 5887 5886 5886 5885 5885
5852 5854 5857 5858 5861 5862 5864 5867 5869 5870 5873 5875 5876 5878 5879 5880 5881 5882 5884 5884 5884 5885 5886 5886 5886 5887 5888 5889 5889 5890 5891 5891 5891 5892 5892 5892 5891 5891 5890 5890 5890 5890 5891 5890 5889 5889 5887 5888 5887
5852 5854 5857 5858 5860 5863 5865 5866 5868 5871 5873 5875 5876 5878 5879 5880 5881 5882 5883 5884 5885 5885 5886 5887 5887 5887 5888 5889 5889 5890 5891 5891 5891 5891 5892 5892 5892 5892 5891 5891 5891 5890 5890 5890 5890 5889 5889 5889 5889
5853 5855 5858 5859 5861 5864 5865 5867 5869 5872 5873 5875 5876 5878 5879 5880 5882 5883 5884 5884 5885 5886 5887 5887 5888 5888 5889 5889 5890 5890 5891 5891 5891 5891 5891 5892 5892 5892 5892 5891 5891 5890 5890 5890 5890 5889 5890 5890 5889
5853 5855 5858 5859 5862 5863 5865 5868 5870 5872 5874 5875 5877 5878 5880 5881 5883 5883 5884 5885 5886 5887 5888 5888 5889 5889 5889 5890 5890 5891 5891 5891 5891 5891 5892 5891 5892 5892 5892 5892 5891 5891 5890 5889 5889 5888 5889 5889 5890
5854 5856 5858 5860 5862 5863 5866 5868 5870 5873 5874 5876 5878 5879 5881 5882 5883 5884 5885 5886 5886 5888 5888 5889 5889 5890 5890 5891 5891 5891 5892 5891 5892 5892 5891 5891 5891 5891 5892 5891 5890 5890 5890 5890 5889 5888 5888 5888 5888
5854 5856 5858 5861 5863 5864 5866 5869 5871 5873 5875 5877 5878 5879 5881 5882 5884 5885 5886 5886 5887 5888 5889 5889 5890 5891 5891 5891 5892 5892 5892 5892 5892 5892 5892 5891 5891 5891 5891 5890 5890 5890 5890 5890 5889 5887 5887 5886 5887
5853 5855 5858 5860 5863 5866 5867 5869 5871 5873 5875 5877 5878 5880 5881 5882 5883 5884 5885 5886 5888 5888 5889 5890 5890 5891 5891 5892 5892 5892 5892 5892 5891 5891 5891 5891 5891 5891 5890 5890 5889 5889 5889 5888 5888 5887 5885 5885 5885
5852 5855 5857 5860 5863 5865 5867 5869 5871 5873 5875 5877 5878 5879 5881 5882 5883 5884 5885 5886 5887 5888 5889 5890 5890 5891 5891 5891 5891 5891 5891 5891 5890 5890 5890 5890 5890 5890 5890 5889 5889 5888 5887 5887 5886 5886 5885 5884 5883
5852 5854 5857 5858 5861 5862 5865 5868 5871 5873 5874 5876 5878 5878 5880 5881 5882 5883 5883 5885 5887 5888 5889 5889 5889 5890 5890 5891 5890 5890 5890 5889 5889 5889 5889 5889 5888 5888 5888 5888 5888 5888 5887 5885 5885 5885 5884 5882 5881
5850 5852 5854 5856 5859 5861 5864 5866 5869 5871 5873 5875 5876 5877 5879 5880 5881 5882 5882 5884 5885 5886 5888 5888 5888 5888 5888 5889 5888 5888 5888 5888 5887 5887 5887 5887 5887 5887 5887 5886 5886 5886 5885 5884 5884 5883 5882 5881 5879
5847 5849 5851 5854 5857 5859 5862 5864 5867 5870 5871 5872 5874 5876 5877 5878 5879 5881 5882 5883 5884 5885 5885 5886 5886 5887 5887 5887 5886 5886 5886 5886 5885 5885 5885 5885 5884 5884 5884 5884 5884 5884 5883 5882 5882 5881 5880 5880 5878
5843 5846 5847 5850 5854 5856 5858 5860 5864 5866 5869 5869 5871 5873 5874 5876 5877 5878 5880 5881 5881 5882 5883 5883 5884 5884 5884 5884 5884 5885 5885 5884 5884 5883 5883 5882 5882 5881 5881 5881 5881 5881 5880 5880 5879 5879 5878 5877 5875
5840 5841 5844 5847 5850 5852 5855 5857 5860 5863 5865 5866 5868 5869 5871 5872 5874 5875 5876 5877 5878 5879 5880 5881 5881 5881 5882 5882 5882 5882 5882 5882 5881 5880 5880 5879 5879 5879 5878 5878 5877 5878 5877 5876 5876 5875 5874 5874 5872
5835 5838 5840 5843 5846 5849 5851 5854 5857 5858 5861 5863 5864 5866 5868 5869 5870 5872 5872 5874 5875 5876 5877 5878 5878 5878 5878 5879 5879 5879 5879 5878 5878 5878 5877 5877 5876 5876 5875 5875 5874 5874 5873 5872 5871 5871 5870 5869 5868
5829 5832 5836 5839 5842 5844 5847 5850 5852 5854 5856 5859 5861 5862 5864 5866 5867 5868 5869 5870 5870 5871 5873 5873 5874 5874 5875 5875 5875 5874 5875 5875 5874 5874 5874 5873 5873 5872 5871 5871 5870 5870 5869 5868 5867 5866 5865 5864 5863
5823 5828 5831 5834 5836 5839 5843 5846 5847 5850 5851 5854 5856 5858 5860 5862 5863 5864 5866 5866 5866 5867 5868 5868 5869 5869 5870 5870 5870 5870 5871 5871 5870 5870 5870 5869 5869 5868 5868 5867 5866 5865 5865 5864 5863 5861 5860 5860 5858
5820 5822 5825 5827 5831 5833 5837 5841 5841 5843 5846 5848 5851 5854 5856 5857 5859 5861 5861 5862 5862 5863 5863 5864 5864 5864 5864 5865 5865 5865 5866 5866 5866 5866 5866 5865 5865 5864 5863 5862 5861 5860 5859 5858 5857 5856 5855 5854 5853
5810 5813 5817 5819 5823 5825 5829 5831 5835 5836 5840 5843 5845 5847 5850 5852 5854 5855 5855 5857 5858 5858 5859 5859 5859 5859 5859 5859 5859 5860 5860 5860 5860 5860 5860 5860 5859 5859 5857 5856 5855 5854 5853 5852 5851 5850 5849 5848 5847
5801 5805 5808 5813 5815 5818 5820 5826 5826 5829 5835 5835 5837 5841 5843 5845 5848 5849 5849 5850 5852 5852 5853 5853 5853 5854 5854 5854 5854 5854 5854 5854 5854 5853 5853 5852 5852 5851 5851 5850 5848 5847 5846 5845 5844 5843 5841 5840 5840
5793 5796 5800 5806 5809 5809 5811 5815 5818 5822 5826 5827 5831 5834 5836 5837 5839 5842 5843 5843 5845 5845 5846 5846 5847 5847 5847 5847 5847 5848 5847 5847 5847 5847 5846 5846 5845 5845 5844 5843 5842 5841 5840 5838 5837 5836 5835 5834 5833
5784 5788 5791 5796 5800 5800 5803 5803 5811 5813 5817 5820 5824 5827 5829 5829 5830 5833 5835 5836 5836 5837 5839 5839 5839 5839 5839 5840 5840 5840 5839 5839 5839 5839 5839 5838 5838 5837 5836 5836 5835 5834 5833 5831 5830 5829 5828 5827 5826
5775 5778 5782 5785 5788 5790 5793 5792 5802 5805 5807 5814 5818 5818 5820 5821 5822 5825 5827 5827 5828 5828 5830 5831 5830 5830 5830 5831 5832 5832 5831 5832 5832 5831 5831 5831 5830 5829 5828 5828 5827 5826 5825 5824 5823 5821 5820 5820 5819
5765 5768 5770 5773 5776 5777 5782 5784 5785 5797 5804 5806 5809 5810 5811 5812 5814 5815 5817 5818 5818 5818 5820 5821 5821 5821 5821 5822 5822 5823 5822 5823 5823 5823 5823 5822 5822 5821 5820 5819 5818 5818 5817 5817 5815 5814 5813 5812 5812
5754 5758 5759 5762 5763 5764 5771 5775 5776 5787 5792 5796 5800 5801 5802 5802 5803 5805 5807 5808 5808 5808 5809 5810 5811 5812 5812 5812 5812 5813 5813 5813 5813 5813 5813 5813 5813 5812 5811 5810 5810 5809 5809 5808 5807 5807 5806 5805 5804
5745 5748 5751 5751 5753 5758 5759 5761 5768 5772 5780 5783 5788 5791 5792 5793 5793 5794 5795 5797 5798 5798 5798 5800 5800 5801 5801 5801 5802 5803 5803 5803 5804 5804 5803 5803 5803 5803 5802 5802 5801 5800 5800 5799 5799 5798 5798 5797 5797
5733 5735 5740 5741 5743 5744 5747 5750 5756 5759 5766 5773 5775 5778 5780 5782 5782 5783 5785 5786 5787 5787 5788 5788 5789 5789 5790 5790 5792 5792 5793 5793 5793 5793 5793 5793 5793 5793 5793 5793 5792 5792 5791 5791 5790 5790 5789 5789 5789
5719 5725 5727 5728 5730 5731 5735 5740 5744 5750 5754 5758 5763 5765 5767 5769 5771 5772 5772 5774 5776 5776 5777 5777 5777 5778 5778 5779 5781 5782 5782 5782 5783 5784 5784 5784 5784 5784 5784 5783 5782 5782 5781 5781 5781 5780 5780 5780 5779
5708 5711 5715 5719 5721 5722 5726 5730 5733 5737 5741 5745 5748 5751 5754 5756 5758 5760 5761 5762 5763 5764 5765 5766 5766 5767 5767 5768 5769 5770 5771 5772 5774 5775 5775 5774 5774 5774 5773 5772 5772 5772 5771 5771 5770 5770 5769 5769 5768
5694 5698 5701 5703 5710 5712 5716 5720 5722 5725 5728 5730 5734 5737 5741 5744 5746 5748 5749 5750 5752 5753 5754 5754 5755 5756 5756 5756 5758 5760 5761 5763 5764 5765 5764 5763 5763 5763 5762 5761 5760 5760 5760 5759 5759 5758 5758 5757 5756